RADUGA 10

Satellite information

Favourite Embed

Satellite Type and Status

PAYLOADIN ORBIT

Key statistics

Satellite RADUGA 10 at a glance.

Uptime

16095

Days in orbit

Revolutions

≈ 1.0

Per day

Orbit

OTHER

Other

Inclination

7.2

Latest

Satellite identification and parameters

Extended collection of information and parameters for RADUGA 10.

Object identification

Identified? True

Debris? False

Object name: RADUGA 10

International designator: 1981-102A

Object number (NORAD): 12897

Object ID (CCSDS): 12897

Country: COMMONWEALTH OF INDEPENDENT STATES (CIS)

Current information (Y/N): Y

RCS size: LARGE

Orbital parameters

Period: 1436.226 minutes

Inclination: 7.2419 deg

SMA: 42167.256 km

Apoapsis: 35806.913 km

Periapsis: 35771.329 km

RAAN: 296.7391 deg

Eccentricy: 0.00042193

Argument of periapsis: 257.1459 deg

Mean anomaly: 151.2227 deg

Mean motion: 1.00262781 rev/day

Mean motion (dot): -0.00000002 rev/day2

B* drag term: 0.0 1/REarth

Two-line elements (TLE)

Creation date: Nov. 1, 2025, 7:40 p.m.

Reference frame: TEME

Reference center: EARTH

Epoch: Nov. 1, 2025, 3:54 p.m. UTC

TLE line 0: 0 RADUGA 10

TLE line 1: 1 12897U 81102A 25305.66262245 -.00000002 00000-0 00000-0 0 9990

TLE line 2: 2 12897 7.2419 296.7391 0004219 257.1459 151.2227 1.00262781115068

Live tracking on map

Real-time ground track for satellite RADUGA 10.

In-orbit conjunctions

A list of the most updated potential collisions computed for object RADUGA 10.

Target Orbit TCA Probability of collision Miss distance Type
LUCH 1 OTHER 2025-06-06 16:04:05 TBA 4740.0 (m) PAYLOAD

Associated space launch

Geostationary communications satellite for military and governmental puposes

RADUGA 10 was lifted into orbit during the mission ‘Proton-K/DM | Raduga 10’, on board a Proton-K/DM space rocket.

The launch took place on Oct. 9, 1981, 4:59 p.m. from 200/39 (200L).

For more information about the launch, click the button.

Launch to space Proton-K/DM | Raduga 10
Proton-K/DM | Raduga 10

Agency: N/A

Status: Launch Successful

Launch date: Oct. 9, 1981, 4:59 p.m. UTC

Rocket: Proton-K/DM

Launch pad: 200/39 (200L)

Location: Baikonur Cosmodrome, Republic of Kazakhstan

...

Latest news about this satellite

There are no fresh news available about this satellite. Check back as we update our databases every day.


Newsletter sign-up

Weekly statistics, charts and insights to help you stay on top of the space industry.